{"data":{"norad_id":66628,"intl_designator":"2025-271M","name":"STARLINK-35862","alt_names":[],"object_type":"PAYLOAD","status":"ACTIVE","operator":null,"country":"US","launch_date":"2025-11-23","launch_site_code":"AFWTR","launch_vehicle":null,"mission":null,"orbit_class":"UNKNOWN","rcs_meters":null,"size_class":null,"mass_kg":null,"dimensions":null,"purposes":["comms"],"wikipedia_slug":null,"has_3d_model":false,"image_url":null,"decayed_at":null,"tle_current":{"epoch":"2026-09-20T10:26:17.076768Z","epoch_age_seconds":92527,"freshness":"FRESH","line1":"1 66628U 25271M   26263.43491987  .00010304  00000+0  31564-3 0  9998","line2":"2 66628  53.1600 310.3542 0001072  80.9146 279.1978 15.34402684 47451","mean_motion":15.34402684,"eccentricity":0.0001072,"inclination_deg":53.16,"raan_deg":310.3542,"arg_perigee_deg":80.9146,"mean_anomaly_deg":279.1978,"bstar":0.00031564,"rev_number":4745,"period_min":93.84759392144,"perigee_km":461.96192558653,"apogee_km":463.42860002368,"semimajor_km":6840.8322628051,"source":"CELESTRAK","updated_at":"2026-09-21T09:00:35.984379Z"}}}